Weather reports worldwide

Advertisment
Sheffield, United Kingdom (99107): temperature & dewpoint: 18.03.2019 16:00:00 - 24.03.2019 16:00:00 (GMT)Sheffield, United Kingdom (99107): sunshine duration: 18.03.2019 16:00:00 - 24.03.2019 16:00:00 (GMT)Sheffield, United Kingdom (99107): precipitation: 18.03.2019 16:00:00 - 24.03.2019 16:00:00 (GMT)
Date & Time tt [°C] td [°C] sd [min] rr [mm]
24.03.2019 16:00:00 - - - -
24.03.2019 15:00:00 10,7 0,1 54 0,0
24.03.2019 14:00:00 10,7 0,4 54 0,0
24.03.2019 13:00:00 9,4 -0,2 60 0,0
24.03.2019 12:00:00 9,6 -0,2 54 0,0
24.03.2019 11:00:00 9,3 -0,7 54 0,0
24.03.2019 10:00:00 8,0 0,4 24 0,0
24.03.2019 09:00:00 7,2 1,7 60 0,0
24.03.2019 08:00:00 5,0 0,6 60 0,0
24.03.2019 07:00:00 3,8 0,1 36 0,0
24.03.2019 06:00:00 2,8 -0,5 0 0,0
24.03.2019 05:00:00 3,5 -0,7 0 0,0
24.03.2019 04:00:00 4,5 -0,6 0 0,0
24.03.2019 03:00:00 4,9 -1,6 0 0,0
24.03.2019 02:00:00 5,2 -0,8 0 0,0
24.03.2019 01:00:00 6,0 0,8 0 0,0
24.03.2019 00:00:00 5,5 0,4 - 0,0
23.03.2019 23:00:00 5,9 0,7 0 0,0
23.03.2019 22:00:00 6,3 0,2 0 0,0
23.03.2019 21:00:00 6,8 0,2 0 0,0
23.03.2019 20:00:00 7,3 0,0 0 0,0
23.03.2019 19:00:00 8,0 -0,4 0 0,0
23.03.2019 18:00:00 8,3 -0,4 0 0,0
23.03.2019 17:00:00 9,1 -0,3 12 0,0
23.03.2019 16:00:00 9,5 -0,5 0 0,0
23.03.2019 15:00:00 9,6 0,5 0 0,0
23.03.2019 14:00:00 10,4 -0,1 42 0,0
23.03.2019 13:00:00 10,7 -0,1 30 0,0
23.03.2019 12:00:00 9,7 0,3 18 0,0
23.03.2019 11:00:00 9,1 0,9 24 0,0
23.03.2019 10:00:00 8,1 -0,7 6 0,0
23.03.2019 09:00:00 7,5 1,2 6 0,0
23.03.2019 08:00:00 6,3 1,3 0 0,0
23.03.2019 07:00:00 5,8 0,8 0 0,0
23.03.2019 06:00:00 5,6 0,3 0 0,0
23.03.2019 05:00:00 6,2 0,0 0 0,0
23.03.2019 04:00:00 6,5 0,8 0 0,0
23.03.2019 03:00:00 6,7 1,3 0 0,0
23.03.2019 02:00:00 7,3 1,8 0 0,0
23.03.2019 01:00:00 8,3 2,8 0 0,0
23.03.2019 00:00:00 8,9 6,2 - 0,0
22.03.2019 23:00:00 8,8 5,6 0 0,0
22.03.2019 22:00:00 9,1 5,7 0 0,2
22.03.2019 21:00:00 10,0 7,9 0 0,0
22.03.2019 20:00:00 10,9 6,8 0 0,0
22.03.2019 19:00:00 11,2 6,8 0 0,0
22.03.2019 18:00:00 11,5 6,6 0 0,0
22.03.2019 17:00:00 11,9 6,3 0 0,0
22.03.2019 16:00:00 12,3 6,1 0 0,0
22.03.2019 15:00:00 12,5 6,0 0 0,0
22.03.2019 14:00:00 12,6 6,0 - 0,0
22.03.2019 13:00:00 11,8 5,2 0 0,0
22.03.2019 12:00:00 10,9 4,5 6 0,0
22.03.2019 11:00:00 10,9 5,4 0 0,0
22.03.2019 10:00:00 11,2 6,3 0 0,0
22.03.2019 09:00:00 10,7 7,1 0 0,0
22.03.2019 08:00:00 10,8 7,1 0 0,0
22.03.2019 07:00:00 10,5 7,3 0 0,0
22.03.2019 06:00:00 10,5 7,4 0 0,0
22.03.2019 05:00:00 10,6 7,4 0 0,0
22.03.2019 04:00:00 10,6 7,7 0 0,0
22.03.2019 03:00:00 10,6 7,7 0 0,0
22.03.2019 02:00:00 10,8 7,5 0 0,0
22.03.2019 01:00:00 11,3 7,6 0 0,0
22.03.2019 00:00:00 11,5 7,8 - 0,0
21.03.2019 23:00:00 11,8 7,9 0 0,0
21.03.2019 22:00:00 11,8 8,3 0 0,0
21.03.2019 21:00:00 11,5 8,0 0 0,0
21.03.2019 20:00:00 10,9 7,9 0 0,0
21.03.2019 19:00:00 11,3 7,4 0 0,0
21.03.2019 18:00:00 12,6 7,7 36 0,0
21.03.2019 17:00:00 13,2 7,7 54 0,0
21.03.2019 16:00:00 13,5 7,9 18 0,0
21.03.2019 15:00:00 14,4 8,4 18 0,0
21.03.2019 14:00:00 13,4 8,0 0 0,0
21.03.2019 13:00:00 12,6 7,6 6 0,0
21.03.2019 12:00:00 12,6 7,7 0 0,0
21.03.2019 11:00:00 12,6 7,5 6 0,0
21.03.2019 10:00:00 12,5 7,7 0 0,0
21.03.2019 09:00:00 12,2 8,0 0 0,0
21.03.2019 08:00:00 11,5 8,4 0 0,0
21.03.2019 07:00:00 10,6 8,4 0 0,0
21.03.2019 06:00:00 9,5 7,8 0 0,0
21.03.2019 05:00:00 9,6 7,8 0 0,0
21.03.2019 04:00:00 9,5 7,9 0 0,0
21.03.2019 03:00:00 8,4 7,0 0 0,0
21.03.2019 02:00:00 9,3 7,1 0 0,0
21.03.2019 01:00:00 9,6 7,0 0 0,0
21.03.2019 00:00:00 10,7 7,4 - 0,0
20.03.2019 23:00:00 11,4 8,1 0 0,0
20.03.2019 22:00:00 12,2 7,7 0 0,0
20.03.2019 21:00:00 13,0 9,4 0 0,0
20.03.2019 20:00:00 13,9 10,0 0 0,0
20.03.2019 19:00:00 14,7 10,1 0 0,0
20.03.2019 18:00:00 16,1 10,3 30 0,0
20.03.2019 17:00:00 17,9 10,0 54 0,0
20.03.2019 16:00:00 18,4 9,4 30 0,0
20.03.2019 15:00:00 18,2 9,1 24 0,0
20.03.2019 14:00:00 18,4 8,6 60 0,0
20.03.2019 13:00:00 18,2 8,8 60 0,0
20.03.2019 12:00:00 16,6 9,4 60 0,0
20.03.2019 11:00:00 16,8 8,9 60 0,0
20.03.2019 10:00:00 14,8 8,6 42 0,0
20.03.2019 09:00:00 12,7 8,3 24 0,0
20.03.2019 08:00:00 10,3 8,0 0 0,0
20.03.2019 07:00:00 9,6 7,5 0 0,0
20.03.2019 06:00:00 10,6 7,7 0 0,0
20.03.2019 05:00:00 9,9 7,8 0 0,0
20.03.2019 04:00:00 9,8 7,8 0 0,0
20.03.2019 03:00:00 9,6 7,5 0 0,0
20.03.2019 02:00:00 9,6 7,3 0 0,0
20.03.2019 01:00:00 9,6 7,3 0 0,0
20.03.2019 00:00:00 9,4 7,2 - 0,0
19.03.2019 23:00:00 9,7 7,6 0 0,0
19.03.2019 22:00:00 9,1 7,5 0 0,0
19.03.2019 21:00:00 9,2 7,4 0 0,0
19.03.2019 20:00:00 9,6 6,8 0 0,0
19.03.2019 19:00:00 10,3 6,8 0 0,0
19.03.2019 18:00:00 11,1 6,6 0 0,0
19.03.2019 17:00:00 11,9 5,6 0 0,0
19.03.2019 16:00:00 12,5 6,5 6 0,0
19.03.2019 15:00:00 12,8 6,7 0 0,0
19.03.2019 14:00:00 12,1 6,3 12 0,0
19.03.2019 13:00:00 11,3 5,9 0 0,0
19.03.2019 12:00:00 10,8 6,4 0 0,0
19.03.2019 11:00:00 10,0 6,7 0 0,0
19.03.2019 10:00:00 9,7 6,6 0 0,0
19.03.2019 09:00:00 9,2 6,6 0 0,0
19.03.2019 08:00:00 8,1 6,0 0 0,0
19.03.2019 07:00:00 7,0 5,4 0 0,0
19.03.2019 06:00:00 6,2 4,9 0 0,0
19.03.2019 05:00:00 6,5 4,8 0 0,0
19.03.2019 04:00:00 6,7 4,8 0 0,0
19.03.2019 03:00:00 7,2 4,4 0 0,0
19.03.2019 02:00:00 7,6 4,7 0 0,0
19.03.2019 01:00:00 7,7 5,7 0 0,0
19.03.2019 00:00:00 7,3 5,7 - 0,0
18.03.2019 23:00:00 7,4 5,4 0 0,0
18.03.2019 22:00:00 7,3 5,1 0 0,0
18.03.2019 21:00:00 7,3 4,9 0 0,0
18.03.2019 20:00:00 7,6 4,5 0 0,0
18.03.2019 19:00:00 7,6 4,3 0 0,0
18.03.2019 18:00:00 8,0 4,4 0 0,0
18.03.2019 17:00:00 8,3 3,6 0 0,0
18.03.2019 16:00:00 8,7 3,4 18 0,0

tt = temperature
td = dewpoint
sd = sunshine duration
rr = precipitation

Next stations